Saint Bonnet de Bellac- Haute Vienne - France
Donnes mto: jeudi, 26/01/2012
Date Horaire Temp. E. Hum. E. P.atmo. Pluie Vent Direction Direction Ensoleilleme Solaire P. de rose Temp au vent Rafales
26/01/2012 00:00 7,6 C 92 % 1015,0 hPa 0,0 mm 0,0 km/h (0 Bft) SE 135 0 min 0 W/m 6,4 C 7,6 C 0,0 km/h (0 Bft)
26/01/2012 00:10 7,4 C 92 % 1015,0 hPa 0,0 mm 0,0 km/h (0 Bft) SE 135 0 min 0 W/m 6,2 C 7,4 C 0,0 km/h (0 Bft)
26/01/2012 00:20 7,3 C 92 % 1015,0 hPa 0,0 mm 0,0 km/h (0 Bft) SE 135 0 min 0 W/m 6,1 C 7,3 C 0,0 km/h (0 Bft)
26/01/2012 00:30 7,1 C 92 % 1015,0 hPa 0,0 mm 0,0 km/h (0 Bft) SE 135 0 min 0 W/m 5,9 C 7,1 C 0,0 km/h (0 Bft)
26/01/2012 00:40 6,9 C 92 % 1015,0 hPa 0,0 mm 0,0 km/h (0 Bft) SE 135 0 min 0 W/m 5,7 C 6,9 C 0,0 km/h (0 Bft)
26/01/2012 00:50 6,9 C 92 % 1014,9 hPa 0,0 mm 0,0 km/h (0 Bft) SE 135 0 min 0 W/m 5,7 C 6,9 C 0,0 km/h (0 Bft)
26/01/2012 01:00 6,9 C 93 % 1014,8 hPa 0,0 mm 0,0 km/h (0 Bft) SE 135 0 min 0 W/m 5,8 C 6,9 C 0,0 km/h (0 Bft)
26/01/2012 01:10 6,9 C 93 % 1014,9 hPa 0,0 mm 0,0 km/h (0 Bft) SE 135 0 min 0 W/m 5,8 C 6,9 C 0,0 km/h (0 Bft)
26/01/2012 01:20 6,9 C 93 % 1014,8 hPa 0,0 mm 0,0 km/h (0 Bft) SE 135 0 min 0 W/m 5,8 C 6,9 C 0,0 km/h (0 Bft)
26/01/2012 01:30 6,9 C 93 % 1014,6 hPa 0,0 mm 0,0 km/h (0 Bft) SE 135 0 min 0 W/m 5,8 C 6,9 C 0,0 km/h (0 Bft)
26/01/2012 01:40 6,9 C 93 % 1014,5 hPa 0,0 mm 0,0 km/h (0 Bft) SE 135 0 min 0 W/m 5,8 C 6,9 C 0,0 km/h (0 Bft)
26/01/2012 01:50 7,0 C 93 % 1014,4 hPa 0,0 mm 0,0 km/h (0 Bft) SE 135 0 min 0 W/m 5,9 C 7,0 C 0,0 km/h (0 Bft)
26/01/2012 02:02 7,0 C 93 % 1014,3 hPa 0,0 mm 0,0 km/h (0 Bft) SE 135 0 min 0 W/m 5,9 C 7,0 C 0,0 km/h (0 Bft)
26/01/2012 02:10 7,1 C 93 % 1014,3 hPa 0,0 mm 0,0 km/h (0 Bft) SE 135 0 min 0 W/m 6,0 C 7,1 C 0,0 km/h (0 Bft)
26/01/2012 02:20 7,1 C 93 % 1014,2 hPa 0,0 mm 0,0 km/h (0 Bft) SE 135 0 min 0 W/m 6,0 C 7,1 C 0,0 km/h (0 Bft)
26/01/2012 02:30 7,1 C 94 % 1014,2 hPa 0,0 mm 0,0 km/h (0 Bft) SE 135 0 min 0 W/m 6,2 C 7,1 C 0,0 km/h (0 Bft)
26/01/2012 02:40 7,1 C 94 % 1014,2 hPa 0,0 mm 0,0 km/h (0 Bft) SE 135 0 min 0 W/m 6,2 C 7,1 C 0,0 km/h (0 Bft)
26/01/2012 02:50 7,1 C 94 % 1014,3 hPa 0,0 mm 0,0 km/h (0 Bft) SE 135 0 min 0 W/m 6,2 C 7,1 C 0,0 km/h (0 Bft)
26/01/2012 03:00 7,1 C 94 % 1014,2 hPa 0,0 mm 0,0 km/h (0 Bft) SE 135 0 min 0 W/m 6,2 C 7,1 C 0,0 km/h (0 Bft)
26/01/2012 03:10 7,1 C 94 % 1014,2 hPa 0,0 mm 0,0 km/h (0 Bft) SE 135 0 min 0 W/m 6,2 C 7,1 C 0,0 km/h (0 Bft)
26/01/2012 03:20 7,1 C 94 % 1014,0 hPa 0,0 mm 0,0 km/h (0 Bft) S-SE 157 0 min 0 W/m 6,2 C 7,1 C 0,0 km/h (0 Bft)
26/01/2012 03:30 7,1 C 94 % 1014,0 hPa 0,0 mm 3,2 km/h (1 Bft) S-SO 202 0 min 0 W/m 6,2 C 7,1 C 4,3 km/h (1 Bft)
26/01/2012 03:40 7,2 C 94 % 1013,9 hPa 0,0 mm 0,0 km/h (0 Bft) SO 225 0 min 0 W/m 6,3 C 7,2 C 0,0 km/h (0 Bft)
26/01/2012 03:50 7,2 C 94 % 1014,0 hPa 0,0 mm 0,4 km/h (0 Bft) SO 225 0 min 0 W/m 6,3 C 7,2 C 3,6 km/h (1 Bft)
26/01/2012 04:00 7,2 C 94 % 1014,0 hPa 0,0 mm 7,2 km/h (2 Bft) O-SO 247 0 min 0 W/m 6,3 C 5,9 C 7,9 km/h (2 Bft)
26/01/2012 04:10 7,2 C 94 % 1014,0 hPa 0,0 mm 1,8 km/h (1 Bft) SO 225 0 min 0 W/m 6,3 C 7,2 C 6,1 km/h (2 Bft)
26/01/2012 04:20 7,2 C 94 % 1014,0 hPa 0,0 mm 4,0 km/h (1 Bft) S 180 0 min 0 W/m 6,3 C 7,2 C 6,1 km/h (2 Bft)
26/01/2012 04:30 7,2 C 93 % 1014,0 hPa 0,0 mm 2,2 km/h (1 Bft) S 180 0 min 0 W/m 6,1 C 7,2 C 7,2 km/h (2 Bft)
26/01/2012 04:40 7,2 C 93 % 1014,0 hPa 0,0 mm 4,3 km/h (1 Bft) SO 225 0 min 0 W/m 6,1 C 7,2 C 4,3 km/h (1 Bft)
26/01/2012 04:50 7,2 C 93 % 1013,9 hPa 0,0 mm 0,4 km/h (0 Bft) SO 225 0 min 0 W/m 6,1 C 7,2 C 3,6 km/h (1 Bft)
26/01/2012 05:00 7,2 C 93 % 1014,0 hPa 0,0 mm 4,3 km/h (1 Bft) SO 225 0 min 0 W/m 6,1 C 7,2 C 7,6 km/h (2 Bft)
26/01/2012 05:10 7,2 C 93 % 1014,1 hPa 0,0 mm 5,4 km/h (2 Bft) SO 225 0 min 0 W/m 6,1 C 6,4 C 9,7 km/h (2 Bft)
26/01/2012 05:20 7,2 C 93 % 1014,1 hPa 0,0 mm 0,0 km/h (0 Bft) O-SO 247 0 min 0 W/m 6,1 C 7,2 C 0,0 km/h (0 Bft)
26/01/2012 05:30 7,1 C 93 % 1014,0 hPa 0,0 mm 1,8 km/h (1 Bft) S-SO 202 0 min 0 W/m 6,0 C 7,1 C 4,0 km/h (1 Bft)
26/01/2012 05:40 7,1 C 94 % 1014,0 hPa 0,0 mm 2,5 km/h (1 Bft) S-SO 202 0 min 0 W/m 6,2 C 7,1 C 4,3 km/h (1 Bft)
26/01/2012 05:50 7,0 C 94 % 1014,0 hPa 0,0 mm 3,6 km/h (1 Bft) S-SO 202 0 min 0 W/m 6,1 C 7,0 C 6,5 km/h (2 Bft)
26/01/2012 06:00 6,9 C 94 % 1013,9 hPa 0,0 mm 0,7 km/h (0 Bft) O-SO 247 0 min 0 W/m 6,0 C 6,9 C 0,7 km/h (0 Bft)
26/01/2012 06:10 6,9 C 94 % 1013,9 hPa 0,0 mm 3,6 km/h (1 Bft) SO 225 0 min 0 W/m 6,0 C 6,9 C 4,3 km/h (1 Bft)
26/01/2012 06:20 6,8 C 94 % 1013,9 hPa 0,0 mm 3,2 km/h (1 Bft) S-SO 202 0 min 0 W/m 5,9 C 6,8 C 6,5 km/h (2 Bft)
26/01/2012 06:30 6,8 C 94 % 1013,9 hPa 0,0 mm 0,4 km/h (0 Bft) O-SO 247 0 min 0 W/m 5,9 C 6,8 C 0,4 km/h (0 Bft)
26/01/2012 06:40 6,8 C 94 % 1014,0 hPa 0,0 mm 1,4 km/h (1 Bft) SO 225 0 min 0 W/m 5,9 C 6,8 C 1,4 km/h (1 Bft)
26/01/2012 06:50 6,6 C 94 % 1014,0 hPa 0,0 mm 2,5 km/h (1 Bft) S-SO 202 0 min 0 W/m 5,7 C 6,6 C 2,9 km/h (1 Bft)
26/01/2012 07:00 6,5 C 94 % 1014,0 hPa 0,0 mm 1,4 km/h (1 Bft) SO 225 0 min 0 W/m 5,6 C 6,5 C 6,8 km/h (2 Bft)
26/01/2012 07:10 6,4 C 94 % 1014,1 hPa 0,0 mm 1,1 km/h (1 Bft) O-SO 247 0 min 0 W/m 5,5 C 6,4 C 1,1 km/h (1 Bft)
26/01/2012 07:20 6,3 C 94 % 1014,2 hPa 0,0 mm 2,9 km/h (1 Bft) SO 225 0 min 0 W/m 5,4 C 6,3 C 7,6 km/h (2 Bft)
26/01/2012 07:30 6,2 C 94 % 1014,3 hPa 0,0 mm 3,2 km/h (1 Bft) O-SO 247 0 min 0 W/m 5,3 C 6,2 C 7,9 km/h (2 Bft)
26/01/2012 07:40 6,1 C 94 % 1014,3 hPa 0,0 mm 4,7 km/h (1 Bft) S-SO 202 0 min 0 W/m 5,2 C 5,4 C 7,2 km/h (2 Bft)
26/01/2012 07:50 6,1 C 94 % 1014,4 hPa 0,0 mm 2,9 km/h (1 Bft) S-SO 202 0 min 0 W/m 5,2 C 6,1 C 6,1 km/h (2 Bft)
26/01/2012 08:00 6,1 C 94 % 1014,4 hPa 0,0 mm 4,3 km/h (1 Bft) S-SO 202 0 min 0 W/m 5,2 C 6,1 C 4,3 km/h (1 Bft)
26/01/2012 08:10 6,1 C 94 % 1014,4 hPa 0,0 mm 0,0 km/h (0 Bft) S 180 0 min 0 W/m 5,2 C 6,1 C 0,0 km/h (0 Bft)
26/01/2012 08:20 6,1 C 94 % 1014,5 hPa 0,0 mm 5,4 km/h (2 Bft) S 180 0 min 0 W/m 5,2 C 5,2 C 6,5 km/h (2 Bft)
26/01/2012 08:30 6,0 C 94 % 1014,4 hPa 0,0 mm 2,5 km/h (1 Bft) S-SO 202 0 min 0 W/m 5,1 C 6,0 C 2,5 km/h (1 Bft)
26/01/2012 08:40 6,0 C 94 % 1014,5 hPa 0,0 mm 2,9 km/h (1 Bft) S 180 2 min 0 W/m 5,1 C 6,0 C 4,3 km/h (1 Bft)
26/01/2012 08:50 5,9 C 94 % 1014,5 hPa 0,1 mm 3,2 km/h (1 Bft) S-SO 202 2 min 0 W/m 5,0 C 5,9 C 4,3 km/h (1 Bft)
26/01/2012 09:00 6,0 C 94 % 1014,6 hPa 0,0 mm 6,1 km/h (2 Bft) S-SO 202 2 min 0 W/m 5,1 C 4,8 C 9,7 km/h (2 Bft)
26/01/2012 09:10 6,1 C 94 % 1014,7 hPa 0,0 mm 1,8 km/h (1 Bft) S-SO 202 2 min 0 W/m 5,2 C 6,1 C 4,0 km/h (1 Bft)
26/01/2012 09:20 6,1 C 93 % 1014,8 hPa 0,0 mm 2,9 km/h (1 Bft) O-SO 247 2 min 0 W/m 5,1 C 6,1 C 2,9 km/h (1 Bft)
26/01/2012 09:30 6,2 C 93 % 1014,9 hPa 0,0 mm 1,1 km/h (1 Bft) S-SO 202 2 min 0 W/m 5,2 C 6,2 C 1,1 km/h (1 Bft)
26/01/2012 09:40 6,3 C 93 % 1014,9 hPa 0,0 mm 5,4 km/h (2 Bft) O-SO 247 2 min 0 W/m 5,3 C 5,4 C 9,4 km/h (2 Bft)
26/01/2012 09:50 6,4 C 93 % 1014,8 hPa 0,0 mm 10,1 km/h (2 Bft) S 180 2 min 0 W/m 5,4 C 4,3 C 17,6 km/h (3 Bft)
26/01/2012 10:00 6,5 C 93 % 1014,8 hPa 0,0 mm 4,3 km/h (1 Bft) S-SE 157 2 min 0 W/m 5,5 C 6,5 C 9,0 km/h (2 Bft)
26/01/2012 10:10 6,7 C 93 % 1014,9 hPa 0,0 mm 0,7 km/h (0 Bft) S-SE 157 2 min 0 W/m 5,6 C 6,7 C 0,7 km/h (0 Bft)
26/01/2012 10:20 6,8 C 93 % 1014,8 hPa 0,0 mm 2,5 km/h (1 Bft) S-SE 157 2 min 0 W/m 5,7 C 6,8 C 3,6 km/h (1 Bft)
26/01/2012 10:30 7,1 C 93 % 1014,9 hPa 0,0 mm 5,4 km/h (2 Bft) S 180 2 min 0 W/m 6,0 C 6,3 C 7,6 km/h (2 Bft)
26/01/2012 10:40 7,2 C 92 % 1014,9 hPa 0,0 mm 5,0 km/h (1 Bft) S-SO 202 2 min 0 W/m 6,0 C 6,6 C 7,2 km/h (2 Bft)
26/01/2012 10:50 7,3 C 92 % 1015,1 hPa 0,0 mm 4,3 km/h (1 Bft) S-SO 202 2 min 0 W/m 6,1 C 7,3 C 6,8 km/h (2 Bft)
26/01/2012 11:00 7,4 C 91 % 1015,2 hPa 0,0 mm 5,4 km/h (2 Bft) S-SE 157 2 min 0 W/m 6,0 C 6,7 C 6,1 km/h (2 Bft)
26/01/2012 11:10 7,4 C 91 % 1015,1 hPa 0,0 mm 2,5 km/h (1 Bft) S-SO 202 2 min 0 W/m 6,0 C 7,4 C 6,5 km/h (2 Bft)
26/01/2012 11:20 7,4 C 90 % 1015,2 hPa 0,0 mm 9,4 km/h (2 Bft) SO 225 2 min 0 W/m 5,9 C 5,6 C 14,8 km/h (3 Bft)
26/01/2012 11:30 7,5 C 90 % 1015,1 hPa 0,0 mm 6,1 km/h (2 Bft) S-SE 157 2 min 0 W/m 6,0 C 6,6 C 9,4 km/h (2 Bft)
26/01/2012 11:40 7,6 C 90 % 1015,2 hPa 0,0 mm 5,4 km/h (2 Bft) SO 225 2 min 0 W/m 6,1 C 6,9 C 12,2 km/h (2 Bft)
26/01/2012 11:50 7,8 C 90 % 1015,1 hPa 0,0 mm 7,2 km/h (2 Bft) S-SO 202 2 min 0 W/m 6,3 C 6,6 C 7,2 km/h (2 Bft)
26/01/2012 12:00 7,8 C 89 % 1015,1 hPa 0,0 mm 10,4 km/h (2 Bft) O-SO 247 2 min 0 W/m 6,1 C 5,9 C 15,1 km/h (3 Bft)
26/01/2012 12:10 7,9 C 89 % 1015,1 hPa 0,0 mm 7,6 km/h (2 Bft) S-SE 157 2 min 0 W/m 6,2 C 6,6 C 10,1 km/h (2 Bft)
26/01/2012 12:20 8,1 C 89 % 1015,0 hPa 0,0 mm 7,9 km/h (2 Bft) S-SO 202 2 min 0 W/m 6,4 C 6,8 C 14,4 km/h (3 Bft)
26/01/2012 12:30 8,1 C 88 % 1015,0 hPa 0,0 mm 4,7 km/h (1 Bft) S 180 2 min 0 W/m 6,2 C 7,7 C 8,3 km/h (2 Bft)
26/01/2012 12:40 8,3 C 89 % 1014,9 hPa 0,0 mm 2,5 km/h (1 Bft) S 180 2 min 0 W/m 6,6 C 8,3 C 4,0 km/h (1 Bft)
26/01/2012 12:50 8,4 C 87 % 1015,0 hPa 0,0 mm 8,3 km/h (2 Bft) S-SO 202 2 min 0 W/m 6,4 C 7,1 C 10,4 km/h (2 Bft)
26/01/2012 13:00 8,6 C 87 % 1014,9 hPa 0,0 mm 9,0 km/h (2 Bft) S 180 2 min 0 W/m 6,6 C 7,2 C 13,0 km/h (3 Bft)
26/01/2012 13:10 8,9 C 87 % 1014,9 hPa 0,0 mm 4,7 km/h (1 Bft) S 180 2 min 0 W/m 6,9 C 8,6 C 6,5 km/h (2 Bft)
26/01/2012 13:20 9,0 C 86 % 1014,8 hPa 0,0 mm 8,3 km/h (2 Bft) S 180 2 min 0 W/m 6,8 C 7,8 C 9,4 km/h (2 Bft)
26/01/2012 13:30 8,9 C 85 % 1014,8 hPa 0,0 mm 10,4 km/h (2 Bft) S-SO 202 2 min 0 W/m 6,5 C 7,2 C 15,5 km/h (3 Bft)
26/01/2012 13:40 8,8 C 86 % 1014,8 hPa 0,0 mm 13,7 km/h (3 Bft) S-SO 202 2 min 0 W/m 6,6 C 6,6 C 17,6 km/h (3 Bft)
26/01/2012 13:50 8,5 C 87 % 1015,0 hPa 0,0 mm 4,3 km/h (1 Bft) SO 225 2 min 0 W/m 6,5 C 8,5 C 6,1 km/h (2 Bft)
26/01/2012 14:00 8,2 C 89 % 1015,0 hPa 0,0 mm 7,2 km/h (2 Bft) SO 225 2 min 0 W/m 6,5 C 7,1 C 8,3 km/h (2 Bft)
26/01/2012 14:10 8,0 C 91 % 1015,1 hPa 0,0 mm 2,2 km/h (1 Bft) SO 225 2 min 0 W/m 6,6 C 8,0 C 4,3 km/h (1 Bft)
26/01/2012 14:20 7,8 C 91 % 1015,3 hPa 0,0 mm 0,7 km/h (0 Bft) O-SO 247 2 min 0 W/m 6,4 C 7,8 C 3,6 km/h (1 Bft)
26/01/2012 14:30 7,8 C 92 % 1015,4 hPa 0,0 mm 5,8 km/h (2 Bft) SO 225 2 min 0 W/m 6,6 C 7,0 C 6,8 km/h (2 Bft)
26/01/2012 14:40 7,6 C 92 % 1015,5 hPa 0,0 mm 1,4 km/h (1 Bft) O-SO 247 2 min 0 W/m 6,4 C 7,6 C 1,4 km/h (1 Bft)
26/01/2012 14:50 7,5 C 92 % 1015,5 hPa 0,1 mm 0,7 km/h (0 Bft) S-SO 202 2 min 0 W/m 6,3 C 7,5 C 3,6 km/h (1 Bft)
26/01/2012 15:00 7,6 C 93 % 1015,6 hPa 0,0 mm 0,0 km/h (0 Bft) O 270 2 min 0 W/m 6,5 C 7,6 C 0,0 km/h (0 Bft)
26/01/2012 15:10 7,6 C 93 % 1015,7 hPa 0,0 mm 1,4 km/h (1 Bft) O-SO 247 2 min 0 W/m 6,5 C 7,6 C 4,3 km/h (1 Bft)
26/01/2012 15:20 7,5 C 93 % 1015,9 hPa 0,1 mm 0,0 km/h (0 Bft) O 270 2 min 0 W/m 6,4 C 7,5 C 0,0 km/h (0 Bft)
26/01/2012 15:30 7,1 C 93 % 1016,1 hPa 0,3 mm 7,6 km/h (2 Bft) N-NO 337 2 min 0 W/m 6,0 C 5,7 C 12,2 km/h (2 Bft)
26/01/2012 15:40 6,6 C 92 % 1016,2 hPa 0,1 mm 9,7 km/h (2 Bft) NO 315 2 min 0 W/m 5,4 C 4,6 C 15,8 km/h (3 Bft)
26/01/2012 15:50 6,3 C 92 % 1016,3 hPa 0,0 mm 0,0 km/h (0 Bft) NO 315 2 min 0 W/m 5,1 C 6,3 C 0,0 km/h (0 Bft)
26/01/2012 16:00 6,1 C 92 % 1016,4 hPa 0,1 mm 0,0 km/h (0 Bft) NO 315 2 min 0 W/m 4,9 C 6,1 C 4,0 km/h (1 Bft)
26/01/2012 16:10 6,0 C 92 % 1016,4 hPa 0,0 mm 0,0 km/h (0 Bft) N-NE 22 2 min 0 W/m 4,8 C 6,0 C 0,0 km/h (0 Bft)
26/01/2012 16:20 5,8 C 93 % 1016,4 hPa 0,0 mm 0,0 km/h (0 Bft) N 360 2 min 0 W/m 4,8 C 5,8 C 0,0 km/h (0 Bft)
26/01/2012 16:30 5,8 C 93 % 1016,4 hPa 0,0 mm 0,0 km/h (0 Bft) N 360 2 min 0 W/m 4,8 C 5,8 C 0,0 km/h (0 Bft)
26/01/2012 16:40 5,8 C 93 % 1016,4 hPa 0,0 mm 0,0 km/h (0 Bft) N 360 2 min 0 W/m 4,8 C 5,8 C 0,0 km/h (0 Bft)
26/01/2012 16:50 5,8 C 93 % 1016,3 hPa 0,0 mm 0,0 km/h (0 Bft) N 360 2 min 0 W/m 4,8 C 5,8 C 0,0 km/h (0 Bft)
26/01/2012 17:00 5,8 C 93 % 1016,2 hPa 0,0 mm 1,8 km/h (1 Bft) SE 135 2 min 0 W/m 4,8 C 5,8 C 4,3 km/h (1 Bft)
26/01/2012 17:10 5,7 C 93 % 1016,3 hPa 0,0 mm 1,8 km/h (1 Bft) SE 135 2 min 0 W/m 4,7 C 5,7 C 3,6 km/h (1 Bft)
26/01/2012 17:20 5,6 C 93 % 1016,5 hPa 0,0 mm 0,0 km/h (0 Bft) S-SE 157 2 min 0 W/m 4,6 C 5,6 C 0,0 km/h (0 Bft)
26/01/2012 17:30 5,6 C 93 % 1016,6 hPa 0,0 mm 1,4 km/h (1 Bft) S 180 2 min 0 W/m 4,6 C 5,6 C 4,3 km/h (1 Bft)
26/01/2012 17:40 5,6 C 93 % 1016,7 hPa 0,0 mm 0,0 km/h (0 Bft) S-SO 202 2 min 0 W/m 4,6 C 5,6 C 0,0 km/h (0 Bft)
26/01/2012 17:50 5,6 C 93 % 1016,8 hPa 0,0 mm 0,0 km/h (0 Bft) SO 225 0 min 0 W/m 4,6 C 5,6 C 0,0 km/h (0 Bft)
26/01/2012 18:00 5,5 C 93 % 1016,8 hPa 0,0 mm 0,0 km/h (0 Bft) SO 225 0 min 0 W/m 4,5 C 5,5 C 0,0 km/h (0 Bft)
26/01/2012 18:10 5,4 C 93 % 1016,9 hPa 0,0 mm 0,0 km/h (0 Bft) S-SE 157 0 min 0 W/m 4,4 C 5,4 C 0,0 km/h (0 Bft)
26/01/2012 18:20 5,4 C 93 % 1017,1 hPa 0,0 mm 0,0 km/h (0 Bft) S-SE 157 0 min 0 W/m 4,4 C 5,4 C 0,0 km/h (0 Bft)
26/01/2012 18:30 5,4 C 93 % 1017,1 hPa 0,0 mm 0,0 km/h (0 Bft) S-SE 157 0 min 0 W/m 4,4 C 5,4 C 0,0 km/h (0 Bft)
26/01/2012 18:40 5,3 C 93 % 1017,2 hPa 0,0 mm 0,0 km/h (0 Bft) S-SE 157 0 min 0 W/m 4,3 C 5,3 C 0,0 km/h (0 Bft)
26/01/2012 18:50 5,3 C 93 % 1017,2 hPa 0,0 mm 0,0 km/h (0 Bft) S-SE 157 0 min 0 W/m 4,3 C 5,3 C 0,0 km/h (0 Bft)
26/01/2012 19:00 5,2 C 94 % 1017,3 hPa 0,0 mm 0,0 km/h (0 Bft) S-SE 157 0 min 0 W/m 4,3 C 5,2 C 0,0 km/h (0 Bft)
26/01/2012 19:10 5,1 C 94 % 1017,4 hPa 0,0 mm 0,0 km/h (0 Bft) S-SE 157 0 min 0 W/m 4,2 C 5,1 C 0,0 km/h (0 Bft)
26/01/2012 19:20 5,1 C 94 % 1017,6 hPa 0,0 mm 0,0 km/h (0 Bft) S-SE 157 0 min 0 W/m 4,2 C 5,1 C 0,0 km/h (0 Bft)
26/01/2012 19:30 5,0 C 94 % 1017,5 hPa 0,0 mm 0,0 km/h (0 Bft) S 180 0 min 0 W/m 4,1 C 5,0 C 0,0 km/h (0 Bft)
26/01/2012 19:40 4,9 C 94 % 1017,7 hPa 0,0 mm 0,0 km/h (0 Bft) SO 225 0 min 0 W/m 4,0 C 4,9 C 0,0 km/h (0 Bft)
26/01/2012 19:50 4,9 C 94 % 1017,8 hPa 0,0 mm 0,0 km/h (0 Bft) SO 225 0 min 0 W/m 4,0 C 4,9 C 0,0 km/h (0 Bft)
26/01/2012 20:00 4,8 C 94 % 1017,9 hPa 0,0 mm 0,0 km/h (0 Bft) S-SO 202 0 min 0 W/m 3,9 C 4,8 C 0,0 km/h (0 Bft)
26/01/2012 20:10 4,8 C 94 % 1018,0 hPa 0,0 mm 0,0 km/h (0 Bft) S-SO 202 0 min 0 W/m 3,9 C 4,8 C 0,0 km/h (0 Bft)
26/01/2012 20:20 4,8 C 94 % 1018,0 hPa 0,0 mm 0,0 km/h (0 Bft) S-SO 202 0 min 0 W/m 3,9 C 4,8 C 0,0 km/h (0 Bft)
26/01/2012 20:30 4,8 C 94 % 1018,0 hPa 0,0 mm 0,0 km/h (0 Bft) S-SO 202 0 min 0 W/m 3,9 C 4,8 C 0,0 km/h (0 Bft)
26/01/2012 20:40 4,7 C 94 % 1018,1 hPa 0,0 mm 0,0 km/h (0 Bft) S-SO 202 0 min 0 W/m 3,8 C 4,7 C 0,0 km/h (0 Bft)
26/01/2012 20:50 4,6 C 94 % 1018,1 hPa 0,0 mm 0,0 km/h (0 Bft) S-SO 202 0 min 0 W/m 3,7 C 4,6 C 0,0 km/h (0 Bft)
26/01/2012 21:00 4,6 C 94 % 1018,3 hPa 0,0 mm 0,0 km/h (0 Bft) S-SO 202 0 min 0 W/m 3,7 C 4,6 C 0,0 km/h (0 Bft)
26/01/2012 21:10 4,5 C 94 % 1018,3 hPa 0,0 mm 0,0 km/h (0 Bft) S-SO 202 0 min 0 W/m 3,6 C 4,5 C 0,0 km/h (0 Bft)
26/01/2012 21:20 4,5 C 94 % 1018,4 hPa 0,0 mm 0,0 km/h (0 Bft) S-SO 202 0 min 0 W/m 3,6 C 4,5 C 0,0 km/h (0 Bft)
26/01/2012 21:30 4,6 C 94 % 1018,4 hPa 0,0 mm 0,0 km/h (0 Bft) SO 225 0 min 0 W/m 3,7 C 4,6 C 2,9 km/h (1 Bft)
26/01/2012 21:40 4,6 C 95 % 1018,5 hPa 0,0 mm 0,0 km/h (0 Bft) S-SO 202 0 min 0 W/m 3,9 C 4,6 C 0,0 km/h (0 Bft)
26/01/2012 21:50 4,6 C 95 % 1018,6 hPa 0,0 mm 0,7 km/h (0 Bft) S-SO 202 0 min 0 W/m 3,9 C 4,6 C 3,6 km/h (1 Bft)
26/01/2012 22:00 4,6 C 95 % 1018,6 hPa 0,0 mm 0,0 km/h (0 Bft) S-SO 202 0 min 0 W/m 3,9 C 4,6 C 0,0 km/h (0 Bft)
26/01/2012 22:10 4,6 C 95 % 1018,6 hPa 0,0 mm 0,0 km/h (0 Bft) S-SO 202 0 min 0 W/m 3,9 C 4,6 C 0,0 km/h (0 Bft)
26/01/2012 22:20 4,6 C 95 % 1018,7 hPa 0,0 mm 0,0 km/h (0 Bft) SO 225 0 min 0 W/m 3,9 C 4,6 C 0,0 km/h (0 Bft)
26/01/2012 22:30 4,6 C 95 % 1018,7 hPa 0,0 mm 0,0 km/h (0 Bft) SO 225 0 min 0 W/m 3,9 C 4,6 C 0,0 km/h (0 Bft)
26/01/2012 22:40 4,5 C 95 % 1018,8 hPa 0,0 mm 0,0 km/h (0 Bft) SO 225 0 min 0 W/m 3,8 C 4,5 C 0,0 km/h (0 Bft)
26/01/2012 22:50 4,4 C 95 % 1018,8 hPa 0,0 mm 0,0 km/h (0 Bft) SO 225 0 min 0 W/m 3,7 C 4,4 C 0,0 km/h (0 Bft)
26/01/2012 23:00 4,3 C 95 % 1018,9 hPa 0,0 mm 0,0 km/h (0 Bft) SO 225 0 min 0 W/m 3,6 C 4,3 C 0,0 km/h (0 Bft)
26/01/2012 23:10 4,0 C 95 % 1019,0 hPa 0,0 mm 0,0 km/h (0 Bft) SO 225 0 min 0 W/m 3,3 C 4,0 C 0,0 km/h (0 Bft)
26/01/2012 23:20 3,8 C 95 % 1019,0 hPa 0,0 mm 0,0 km/h (0 Bft) SO 225 0 min 0 W/m 3,1 C 3,8 C 0,0 km/h (0 Bft)
26/01/2012 23:30 3,7 C 95 % 1019,1 hPa 0,0 mm 0,0 km/h (0 Bft) SO 225 0 min 0 W/m 3,0 C 3,7 C 0,0 km/h (0 Bft)
26/01/2012 23:40 3,8 C 95 % 1019,1 hPa 0,0 mm 0,0 km/h (0 Bft) SO 225 0 min 0 W/m 3,1 C 3,8 C 0,0 km/h (0 Bft)
26/01/2012 23:50 3,8 C 95 % 1019,2 hPa 0,0 mm 0,0 km/h (0 Bft) SO 225 0 min 0 W/m 3,1 C 3,8 C 0,0 km/h (0 Bft)
_ Min-Heure 23:30 13:30 06:30 - 23:50 - - - - 23:30 23:30 23:50
Minimum _ 3,7 C 85 % 1013,9 hPa - 0,0 km/h (0 Bft) - - - - 3,0 C 3,7 C 0,0 km/h (0 Bft)
_ Max-Heure 13:20 23:50 23:50 15:30 13:40 - - 17:40 23:50 13:10 13:10 13:40
Maximum _ 9,0 C 95 % 1019,2 hPa 0,3 mm 13,7 km/h
S-SO (3 Bft)
- - 2 min 0 W/m 6,9 C 8,6 C 17,6 km/h
S-SO (3 Bft)
Moyenne _ 6,4 C 93 % 1015,7 hPa #0,8 mm 2,1 km/h (1 Bft) S-SO - #1:50 h 0 W/m 5,3 C 6,2 C 3,5 km/h (1 Bft)
Saint Bonnet de Bellac- Haute Vienne - France